When you browse on this site, cookies collect data to enhance your experience and personalize the content and advertising you see.
Visit our Privacy Policy to learn more. By continuing to use the site, you agree to this use of cookies and data.
  • în România
  • Lista ţărilor
  • Pe 7 zile
  • Temperatura apei
  • Hartă satelitară
  • Meteo pe hartă
  • Widget-uri
  • user-avatar
    Intrare

    Meteo pe oră la Sovetskoe

    Astăzi, 19 Iulie, Vineri

    Timp Temperatura Precipitaţii Vânt Presiune Umiditate
    00:00 +21°C° 0 mm 1 m/s 751 mmHg 80%
    01:00 +20°C° 0 mm 1 m/s 751 mmHg 81%
    02:00 +20°C° 0 mm 1 m/s 751 mmHg 82%
    03:00 +20°C° 0 mm 1 m/s 751 mmHg 83%
    04:00 +20°C° 0 mm 1 m/s 751 mmHg 80%
    05:00 +21°C° 0 mm 1 m/s 751 mmHg 77%
    06:00 +20°C° 0 mm 0 m/s 752 mmHg 73%
    07:00 +23°C° 0 mm 1 m/s 752 mmHg 70%
    08:00 +24°C° 0 mm 1 m/s 752 mmHg 67%
    09:00 +24°C° 0 mm 2 m/s 752 mmHg 63%
    10:00 +26°C° 0 mm 2 m/s 752 mmHg 56%
    11:00 +27°C° 0 mm 2 m/s 752 mmHg 49%
    12:00 +29°C° 0 mm 3 m/s 752 mmHg 42%
    13:00 +29°C° 0 mm 3 m/s 753 mmHg 42%
    14:00 +29°C° 0 mm 3 m/s 753 mmHg 41%
    15:00 +29°C° 0 mm 3 m/s 753 mmHg 41%
    16:00 +29°C° 0 mm 3 m/s 753 mmHg 45%
    17:00 +28°C° 0 mm 2 m/s 753 mmHg 50%
    18:00 +27°C° 0 mm 2 m/s 753 mmHg 54%
    19:00 +26°C° 0 mm 2 m/s 753 mmHg 59%
    20:00 +24°C° 0 mm 2 m/s 753 mmHg 64%
    21:00 +22°C° 0 mm 1 m/s 753 mmHg 69%
    22:00 +22°C° 0 mm 1 m/s 753 mmHg 71%
    23:00 +21°C° 0 mm 1 m/s 754 mmHg 72%

    Mâine, 20 Iulie, Sâmbătă

    Timp Temperatura Precipitaţii Vânt Presiune Umiditate
    00:00 +20°C° 0 mm 1 m/s 754 mmHg 74%
    01:00 +20°C° 0 mm 1 m/s 754 mmHg 74%
    02:00 +20°C° 0 mm 1 m/s 754 mmHg 74%
    03:00 +19°C° 0 mm 1 m/s 754 mmHg 74%
    04:00 +20°C° 0 mm 1 m/s 754 mmHg 72%
    05:00 +19°C° 0 mm 2 m/s 754 mmHg 71%
    06:00 +20°C° 0 mm 2 m/s 755 mmHg 69%
    07:00 +23°C° 0 mm 2 m/s 755 mmHg 64%
    08:00 +24°C° 0 mm 3 m/s 755 mmHg 59%
    09:00 +26°C° 0 mm 3 m/s 755 mmHg 54%
    10:00 +27°C° 0 mm 4 m/s 755 mmHg 52%
    11:00 +27°C° 0 mm 4 m/s 755 mmHg 49%
    12:00 +28°C° 0 mm 5 m/s 755 mmHg 47%
    13:00 +28°C° 0 mm 5 m/s 755 mmHg 46%
    14:00 +28°C° 0 mm 5 m/s 755 mmHg 44%
    15:00 +29°C° 0 mm 5 m/s 755 mmHg 43%
    16:00 +28°C° 0 mm 5 m/s 755 mmHg 46%
    17:00 +27°C° 0 mm 5 m/s 755 mmHg 49%
    18:00 +27°C° 0 mm 4 m/s 755 mmHg 52%
    19:00 +25°C° 0 mm 4 m/s 756 mmHg 57%
    20:00 +22°C° 0 mm 3 m/s 756 mmHg 61%
    21:00 +20°C° 0 mm 3 m/s 756 mmHg 66%
    22:00 +20°C° 0 mm 3 m/s 756 mmHg 68%
    23:00 +19°C° 0 mm 3 m/s 756 mmHg 70%

    Poimâine, 21 Iulie, Duminică

    Timp Temperatura Precipitaţii Vânt Presiune Umiditate
    00:00 +19°C° 0 mm 3 m/s 756 mmHg 73%
    01:00 +18°C° 0 mm 3 m/s 756 mmHg 74%
    02:00 +18°C° 0 mm 3 m/s 756 mmHg 76%
    03:00 +18°C° 0 mm 3 m/s 756 mmHg 78%
    04:00 +18°C° 0 mm 3 m/s 756 mmHg 77%
    05:00 +19°C° 0 mm 3 m/s 756 mmHg 75%
    06:00 +19°C° 0 mm 3 m/s 756 mmHg 74%
    07:00 +21°C° 0 mm 4 m/s 757 mmHg 67%
    08:00 +23°C° 0 mm 4 m/s 757 mmHg 60%
    09:00 +25°C° 0 mm 4 m/s 757 mmHg 53%
    10:00 +26°C° 0 mm 5 m/s 756 mmHg 49%
    11:00 +27°C° 0 mm 5 m/s 756 mmHg 45%
    12:00 +28°C° 0 mm 5 m/s 756 mmHg 42%
    13:00 +28°C° 0 mm 5 m/s 756 mmHg 41%
    14:00 +28°C° 0 mm 5 m/s 756 mmHg 41%
    15:00 +29°C° 0 mm 6 m/s 755 mmHg 40%
    16:00 +28°C° 0 mm 5 m/s 755 mmHg 43%
    17:00 +27°C° 0 mm 4 m/s 755 mmHg 47%
    18:00 +27°C° 0 mm 4 m/s 755 mmHg 50%
    19:00 +25°C° 0 mm 3 m/s 755 mmHg 55%
    20:00 +22°C° 0 mm 3 m/s 755 mmHg 60%
    21:00 +21°C° 0 mm 3 m/s 755 mmHg 65%
    22:00 +20°C° 0 mm 3 m/s 755 mmHg 67%
    23:00 +19°C° 0 mm 3 m/s 755 mmHg 70%

    22 Iulie, Luni

    Timp Temperatura Precipitaţii Vânt Presiune Umiditate
    00:00 +19°C° 0 mm 3 m/s 755 mmHg 72%
    01:00 +18°C° 0 mm 3 m/s 755 mmHg 76%
    02:00 +18°C° 0 mm 3 m/s 755 mmHg 79%
    03:00 +17°C° 0 mm 3 m/s 755 mmHg 82%
    04:00 +18°C° 0 mm 3 m/s 755 mmHg 81%
    05:00 +18°C° 0 mm 3 m/s 755 mmHg 80%
    06:00 +19°C° 0 mm 3 m/s 755 mmHg 80%
    07:00 +20°C° 0 mm 3 m/s 755 mmHg 73%
    08:00 +22°C° 0 mm 4 m/s 755 mmHg 67%
    09:00 +25°C° 0 mm 4 m/s 754 mmHg 60%
    10:00 +25°C° 0 mm 4 m/s 754 mmHg 57%
    11:00 +26°C° 0 mm 5 m/s 754 mmHg 53%
    12:00 +27°C° 0 mm 5 m/s 754 mmHg 50%
    13:00 +27°C° 0 mm 5 m/s 754 mmHg 48%
    14:00 +28°C° 0 mm 5 m/s 753 mmHg 46%
    15:00 +28°C° 0 mm 6 m/s 753 mmHg 45%
    16:00 +27°C° 0 mm 5 m/s 753 mmHg 48%
    17:00 +27°C° 0 mm 5 m/s 753 mmHg 51%
    18:00 +26°C° 0 mm 4 m/s 753 mmHg 54%
    19:00 +24°C° 0 mm 3 m/s 753 mmHg 60%
    20:00 +22°C° 0 mm 3 m/s 753 mmHg 66%
    21:00 +20°C° 0 mm 2 m/s 753 mmHg 73%
    22:00 +19°C° 0 mm 2 m/s 753 mmHg 75%
    23:00 +19°C° 0 mm 2 m/s 753 mmHg 78%

    23 Iulie, Marţi

    Timp Temperatura Precipitaţii Vânt Presiune Umiditate
    00:00 +18°C° 0 mm 2 m/s 753 mmHg 80%
    01:00 +19°C° 0 mm 1 m/s 753 mmHg 82%
    02:00 +18°C° 0 mm 1 m/s 753 mmHg 84%
    03:00 +16°C° 0 mm 1 m/s 753 mmHg 86%
    04:00 +18°C° 0 mm 1 m/s 753 mmHg 83%
    05:00 +19°C° 0 mm 1 m/s 753 mmHg 80%
    06:00 +20°C° 0 mm 1 m/s 753 mmHg 77%
    07:00 +21°C° 0 mm 1 m/s 753 mmHg 70%
    08:00 +23°C° 0 mm 1 m/s 753 mmHg 63%
    09:00 +24°C° 0 mm 1 m/s 753 mmHg 57%
    10:00 +26°C° 0 mm 1 m/s 753 mmHg 52%
    11:00 +27°C° 0 mm 1 m/s 753 mmHg 47%
    12:00 +28°C° 0 mm 1 m/s 753 mmHg 42%
    13:00 +28°C° 0 mm 1 m/s 753 mmHg 40%
    14:00 +28°C° 0 mm 1 m/s 753 mmHg 39%
    15:00 +28°C° 0 mm 2 m/s 753 mmHg 38%
    16:00 +28°C° 0 mm 2 m/s 752 mmHg 40%
    17:00 +28°C° 0 mm 2 m/s 752 mmHg 42%
    18:00 +28°C° 0 mm 1 m/s 752 mmHg 44%
    19:00 +26°C° 0 mm 2 m/s 752 mmHg 48%
    20:00 +25°C° 0 mm 2 m/s 752 mmHg 51%
    21:00 +22°C° 0 mm 3 m/s 753 mmHg 55%
    22:00 +22°C° 0 mm 3 m/s 753 mmHg 56%
    23:00 +21°C° 0 mm 3 m/s 753 mmHg 57%

    24 Iulie, Miercuri

    Timp Temperatura Precipitaţii Vânt Presiune Umiditate
    00:00 +21°C° 0 mm 4 m/s 753 mmHg 58%
    01:00 +21°C° 0 mm 4 m/s 753 mmHg 59%
    02:00 +21°C° 0 mm 4 m/s 753 mmHg 60%
    03:00 +20°C° 0 mm 4 m/s 753 mmHg 60%
    04:00 +20°C° 0 mm 4 m/s 753 mmHg 61%
    05:00 +20°C° 0 mm 4 m/s 753 mmHg 62%
    06:00 +21°C° 0 mm 5 m/s 753 mmHg 63%
    07:00 +22°C° 0 mm 5 m/s 753 mmHg 58%
    08:00 +25°C° 0 mm 5 m/s 753 mmHg 54%
    09:00 +26°C° 0 mm 5 m/s 753 mmHg 49%
    10:00 +27°C° 0 mm 5 m/s 753 mmHg 46%
    11:00 +29°C° 0 mm 5 m/s 753 mmHg 44%
    12:00 +30°C° 0 mm 5 m/s 753 mmHg 41%
    13:00 +30°C° 0 mm 5 m/s 753 mmHg 40%
    14:00 +30°C° 0 mm 5 m/s 753 mmHg 39%
    15:00 +30°C° 0 mm 5 m/s 753 mmHg 38%
    16:00 +30°C° 0 mm 5 m/s 753 mmHg 41%
    17:00 +29°C° 0 mm 5 m/s 752 mmHg 44%
    18:00 +28°C° 0 mm 6 m/s 752 mmHg 47%
    19:00 +27°C° 0 mm 6 m/s 752 mmHg 48%
    20:00 +26°C° 0 mm 6 m/s 752 mmHg 50%
    21:00 +24°C° 0 mm 6 m/s 752 mmHg 51%
    22:00 +23°C° 0 mm 6 m/s 752 mmHg 52%
    23:00 +23°C° 0 mm 6 m/s 752 mmHg 53%
    Arată mai mult